DKH1720 ZGSD-ZSPD

Flight info

Callsign DKH1720
Flight time N/A
Altitude 33100
Route ZAO XX0001 GUBLO V17 IGAGA X63 P154 J109 JCS V36 TEBON A470 LJG B221 DST X11 FK J603 BK
Aircraft A321/M-SDE3FGHIRWY/LB1

Departure

Time 2026-04-25 12:59
Airport Zhuhai Jinwan Airport (ZGSD)

Arrival

Time N/A
Airport Shanghai Pudong International Airport (ZSPD)
Time Latitude Longitude Altitude Speed Heading
2026-04-25 12:49 22.00824 113.37249 28 ft 0 kts 15°
2026-04-25 12:51 22.00818 113.37247 31 ft 4 kts 15°
2026-04-25 12:51 22.00792 113.37240 27 ft 4 kts 12°
2026-04-25 12:51 22.00768 113.37233 28 ft 2 kts 25°
2026-04-25 12:51 22.00752 113.37222 28 ft 4 kts 81°
2026-04-25 12:52 22.00757 113.37197 28 ft 4 kts 123°
2026-04-25 12:52 22.00768 113.37181 28 ft 1 kts 135°
2026-04-25 12:52 22.00770 113.37179 28 ft 2 kts 135°
2026-04-25 12:54 22.00770 113.37180 28 ft 1 kts 135°
2026-04-25 12:54 22.00743 113.37209 28 ft 10 kts 135°
2026-04-25 12:54 22.00669 113.37289 28 ft 20 kts 134°
2026-04-25 12:55 22.00568 113.37298 28 ft 15 kts 222°
2026-04-25 12:55 22.00510 113.37239 28 ft 20 kts 224°
2026-04-25 12:55 22.00350 113.37069 28 ft 25 kts 225°
2026-04-25 12:55 22.00231 113.36942 28 ft 23 kts 224°
2026-04-25 12:56 22.00119 113.36824 28 ft 22 kts 225°
2026-04-25 12:56 21.99991 113.36687 29 ft 28 kts 224°
2026-04-25 12:56 21.99855 113.36544 29 ft 26 kts 225°
2026-04-25 12:56 21.99728 113.36409 28 ft 25 kts 225°
2026-04-25 12:57 21.99608 113.36282 28 ft 23 kts 224°
2026-04-25 12:57 21.99487 113.36220 27 ft 19 kts 145°
2026-04-25 12:57 21.99421 113.36330 27 ft 17 kts 76°
2026-04-25 12:57 21.99498 113.36417 28 ft 18 kts 44°
2026-04-25 12:58 21.99718 113.36649 30 ft 77 kts 45°
2026-04-25 12:58 22.00241 113.37205 27 ft 132 kts 45°
2026-04-25 12:58 22.00997 113.38009 27 ft 172 kts 44°
2026-04-25 12:58 22.01886 113.38974 331 ft 185 kts 45°
2026-04-25 12:59 22.02811 113.39962 870 ft 188 kts 43°
2026-04-25 12:59 22.03753 113.40942 1415 ft 191 kts 44°
2026-04-25 12:59 22.04690 113.41943 1881 ft 198 kts 44°
2026-04-25 12:59 22.05730 113.43059 2037 ft 216 kts 44°
2026-04-25 13:00 22.06845 113.44230 2125 ft 240 kts 43°
2026-04-25 13:00 22.07268 113.44651 2212 ft 248 kts 42°
2026-04-25 13:00 22.09500 113.46795 3102 ft 264 kts 41°
2026-04-25 13:00 22.10893 113.48119 3750 ft 270 kts 40°
2026-04-25 13:01 22.11853 113.49033 4233 ft 275 kts 40°
2026-04-25 13:01 22.13764 113.50856 5333 ft 279 kts 40°
2026-04-25 13:01 22.15222 113.52253 6002 ft 283 kts 41°
2026-04-25 13:01 22.16704 113.53674 6652 ft 287 kts 40°
2026-04-25 13:02 22.17694 113.54624 7062 ft 289 kts 40°
2026-04-25 13:02 22.19220 113.56086 7713 ft 291 kts 40°
2026-04-25 13:02 22.21242 113.58028 8540 ft 295 kts 40°
2026-04-25 13:02 22.22257 113.59006 8953 ft 296 kts 40°
2026-04-25 13:03 22.23809 113.60500 9583 ft 299 kts 39°
2026-04-25 13:03 22.25374 113.61975 10148 ft 301 kts 38°
2026-04-25 13:03 22.27042 113.63444 10333 ft 320 kts 36°
2026-04-25 13:03 22.29475 113.65503 10500 ft 345 kts 36°
2026-04-25 13:04 22.30758 113.66577 10580 ft 357 kts 36°
2026-04-25 13:04 22.32755 113.68257 10865 ft 368 kts 36°
2026-04-25 13:04 22.34774 113.69971 11358 ft 372 kts 36°
2026-04-25 13:04 22.36810 113.71715 11897 ft 374 kts 36°
2026-04-25 13:05 22.38850 113.73471 12452 ft 377 kts 36°
2026-04-25 13:05 22.40908 113.75246 13009 ft 379 kts 37°
2026-04-25 13:05 22.42984 113.77036 13523 ft 383 kts 37°
2026-04-25 13:05 22.45078 113.78861 14017 ft 387 kts 38°
2026-04-25 13:06 22.47138 113.80751 14489 ft 390 kts 39°
2026-04-25 13:06 22.49173 113.82685 14934 ft 393 kts 39°
2026-04-25 13:06 22.51227 113.84663 15400 ft 396 kts 39°
2026-04-25 13:06 22.53289 113.86651 15853 ft 399 kts 39°
2026-04-25 13:07 22.55376 113.88653 16305 ft 402 kts 38°
2026-04-25 13:07 22.57485 113.90663 16736 ft 405 kts 38°
2026-04-25 13:07 22.59607 113.92677 17153 ft 408 kts 38°
2026-04-25 13:07 22.61754 113.94712 17575 ft 411 kts 38°
2026-04-25 13:08 22.63915 113.96759 17980 ft 414 kts 38°
2026-04-25 13:08 22.66096 113.98822 18362 ft 417 kts 38°
2026-04-25 13:08 22.68284 114.00896 18696 ft 420 kts 38°
2026-04-25 13:08 22.70495 114.02992 19027 ft 424 kts 38°
2026-04-25 13:09 22.72732 114.05091 19359 ft 426 kts 37°
2026-04-25 13:09 22.74980 114.07142 19680 ft 429 kts 37°
2026-04-25 13:09 22.77289 114.09212 20005 ft 432 kts 36°
2026-04-25 13:09 22.79616 114.11284 20337 ft 436 kts 36°
2026-04-25 13:10 22.81968 114.13381 20658 ft 439 kts 36°
2026-04-25 13:10 22.84332 114.15501 20979 ft 442 kts 37°
2026-04-25 13:10 22.86700 114.17639 21313 ft 445 kts 37°
2026-04-25 13:10 22.89087 114.19806 21632 ft 449 kts 37°
2026-04-25 13:11 22.91487 114.21992 21962 ft 451 kts 37°
2026-04-25 13:11 22.93894 114.24202 22274 ft 455 kts 38°
2026-04-25 13:11 22.96302 114.26439 22584 ft 458 kts 38°
2026-04-25 13:11 22.98726 114.28710 22912 ft 461 kts 38°
2026-04-25 13:12 23.01161 114.31004 23237 ft 465 kts 38°
2026-04-25 13:12 23.03613 114.33315 23548 ft 468 kts 38°
2026-04-25 13:12 23.06073 114.35633 23808 ft 471 kts 38°
2026-04-25 13:12 23.07716 114.37178 23963 ft 473 kts 38°
2026-04-25 13:13 23.11024 114.40292 24340 ft 476 kts 39°
2026-04-25 13:13 23.13329 114.42946 24619 ft 481 kts 50°
2026-04-25 13:13 23.15182 114.45987 24915 ft 485 kts 60°
2026-04-25 13:13 23.16535 114.49356 25189 ft 488 kts 71°
2026-04-25 13:14 23.17329 114.52899 25461 ft 490 kts 82°
2026-04-25 13:14 23.17767 114.56622 25733 ft 492 kts 83°
2026-04-25 13:14 23.18190 114.60275 26021 ft 494 kts 83°
2026-04-25 13:14 23.18634 114.63991 26282 ft 496 kts 83°
2026-04-25 13:15 23.19090 114.67709 26553 ft 498 kts 82°
2026-04-25 13:15 23.19557 114.71467 26824 ft 500 kts 82°
2026-04-25 13:15 23.20021 114.75221 27078 ft 503 kts 82°
2026-04-25 13:15 23.20484 114.78998 27338 ft 505 kts 82°
2026-04-25 13:16 23.20942 114.82779 27606 ft 507 kts 82°
2026-04-25 13:16 23.21400 114.86587 27863 ft 509 kts 82°
2026-04-25 13:16 23.21857 114.90412 28118 ft 511 kts 82°
2026-04-25 13:16 23.22313 114.94255 28373 ft 513 kts 82°
2026-04-25 13:17 23.22767 114.98101 28651 ft 514 kts 82°
2026-04-25 13:17 23.23224 115.01959 29017 ft 513 kts 82°
2026-04-25 13:17 23.23681 115.05803 29320 ft 514 kts 82°
2026-04-25 13:17 23.24140 115.09666 29628 ft 515 kts 83°
2026-04-25 13:18 23.24596 115.13533 29932 ft 515 kts 83°
2026-04-25 13:18 23.25046 115.17352 30221 ft 516 kts 83°
2026-04-25 13:18 23.25507 115.21260 30496 ft 515 kts 83°
2026-04-25 13:18 23.25962 115.25129 30765 ft 515 kts 83°
2026-04-25 13:19 23.26414 115.28987 31020 ft 516 kts 83°
2026-04-25 13:19 23.26861 115.32809 31294 ft 516 kts 83°
2026-04-25 13:19 23.27313 115.36686 31513 ft 517 kts 83°
2026-04-25 13:19 23.27619 115.39308 31664 ft 518 kts 83°
2026-04-25 13:20 23.28217 115.44458 31984 ft 519 kts 83°
2026-04-25 13:20 23.28666 115.48358 32223 ft 519 kts 83°
2026-04-25 13:20 23.29117 115.52261 32454 ft 520 kts 83°
2026-04-25 13:20 23.29569 115.56155 32690 ft 520 kts 83°
2026-04-25 13:21 23.30022 115.60064 32917 ft 520 kts 83°
2026-04-25 13:21 23.30470 115.63964 33103 ft 521 kts 83°
2026-04-25 13:21 23.31373 115.71774 33145 ft 520 kts 81°
2026-04-25 13:22 23.33439 115.79287 33145 ft 518 kts 62°
2026-04-25 13:23 23.38035 115.89926 33143 ft 515 kts 63°
2026-04-25 13:23 23.41033 115.96968 33141 ft 513 kts 63°
2026-04-25 13:24 23.44033 116.04034 33133 ft 514 kts 63°
2026-04-25 13:24 23.47051 116.11101 33129 ft 515 kts 63°
2026-04-25 13:25 23.50061 116.18144 33133 ft 516 kts 63°
2026-04-25 13:25 23.53083 116.25237 33139 ft 516 kts 63°
2026-04-25 13:26 23.56128 116.32411 33125 ft 517 kts 63°
2026-04-25 13:26 23.59117 116.39465 33172 ft 517 kts 63°
2026-04-25 13:27 23.62282 116.46499 33177 ft 515 kts 60°
2026-04-25 13:27 23.65749 116.53319 33174 ft 514 kts 58°
2026-04-25 13:28 23.69265 116.60094 33154 ft 514 kts 58°
2026-04-25 13:28 23.72699 116.66951 33134 ft 515 kts 59°
2026-04-25 13:29 23.76079 116.73855 33147 ft 516 kts 59°
2026-04-25 13:29 23.79471 116.80775 33175 ft 516 kts 59°
2026-04-25 13:30 23.84555 116.91081 33156 ft 514 kts 59°
2026-04-25 13:31 23.89619 117.01360 33157 ft 514 kts 60°
2026-04-25 13:31 23.93014 117.08244 33155 ft 514 kts 59°
2026-04-25 13:32 23.96438 117.15113 33155 ft 514 kts 59°
2026-04-25 13:32 23.99870 117.21979 33164 ft 514 kts 59°
2026-04-25 13:33 24.03289 117.28847 33159 ft 515 kts 59°
2026-04-25 13:33 24.06699 117.35729 33159 ft 514 kts 60°
2026-04-25 13:34 24.10109 117.42620 33162 ft 514 kts 59°
2026-04-25 13:34 24.13618 117.49429 33147 ft 512 kts 53°
2026-04-25 13:35 24.18182 117.55350 33140 ft 509 kts 44°
2026-04-25 13:35 24.22938 117.61030 33167 ft 510 kts 44°
2026-04-25 13:36 24.27717 117.66773 33162 ft 509 kts 44°
2026-04-25 13:36 24.32481 117.72506 33159 ft 509 kts 44°
2026-04-25 13:37 24.37251 117.78253 33160 ft 509 kts 44°
2026-04-25 13:37 24.42009 117.83997 33193 ft 509 kts 44°
2026-04-25 13:38 24.46772 117.89746 33172 ft 508 kts 44°
2026-04-25 13:38 24.51538 117.95493 33162 ft 508 kts 44°
2026-04-25 13:39 24.56286 118.01230 33158 ft 508 kts 44°
2026-04-25 13:39 24.61116 118.06882 33153 ft 507 kts 42°
2026-04-25 13:40 24.66057 118.12411 33163 ft 507 kts 41°
2026-04-25 13:40 24.71022 118.17962 33142 ft 509 kts 42°
2026-04-25 13:41 24.75976 118.23585 33146 ft 510 kts 42°
2026-04-25 13:41 24.80898 118.29225 33149 ft 511 kts 42°
2026-04-25 13:42 24.85779 118.34822 33149 ft 511 kts 42°
2026-04-25 13:42 24.90716 118.40469 33149 ft 512 kts 42°
2026-04-25 13:43 24.95666 118.46133 33146 ft 513 kts 42°
2026-04-25 13:43 25.00623 118.51806 33145 ft 514 kts 42°
2026-04-25 13:44 25.05592 118.57504 33145 ft 515 kts 43°
2026-04-25 13:44 25.10543 118.63215 33185 ft 516 kts 43°
2026-04-25 13:45 25.15433 118.69057 33132 ft 518 kts 44°
2026-04-25 13:45 25.20261 118.74976 33145 ft 519 kts 44°
2026-04-25 13:46 25.25103 118.80883 33149 ft 520 kts 44°
2026-04-25 13:46 25.29967 118.86746 33158 ft 520 kts 44°
2026-04-25 13:47 25.34885 118.92686 33162 ft 521 kts 44°
2026-04-25 13:47 25.39809 118.98493 33158 ft 520 kts 43°
2026-04-25 13:48 25.44817 119.04279 33166 ft 520 kts 42°
2026-04-25 13:48 25.49811 119.10066 33170 ft 520 kts 43°
2026-04-25 13:49 25.53940 119.14904 33194 ft 521 kts 43°
2026-04-25 13:49 25.58913 119.20761 33149 ft 522 kts 43°
2026-04-25 13:50 25.63901 119.26625 33150 ft 522 kts 43°
2026-04-25 13:50 25.69703 119.33428 33168 ft 522 kts 41°
2026-04-25 13:51 25.74343 119.37581 33204 ft 511 kts 26°
2026-04-25 13:51 25.80698 119.40782 33171 ft 494 kts
2026-04-25 13:52 25.87280 119.43003 33163 ft 495 kts
2026-04-25 13:52 25.93885 119.45237 33162 ft 496 kts
2026-04-25 13:53 26.00494 119.47490 33218 ft 497 kts
2026-04-25 13:53 26.07109 119.49749 33180 ft 498 kts
2026-04-25 13:54 26.13748 119.52013 33174 ft 499 kts
2026-04-25 13:54 26.20370 119.54323 33156 ft 502 kts 13°
2026-04-25 13:55 26.26628 119.58040 33174 ft 516 kts 25°
2026-04-25 13:55 26.32682 119.62290 33153 ft 518 kts 25°
2026-04-25 13:56 26.38795 119.66576 33151 ft 519 kts 25°
2026-04-25 13:56 26.44922 119.70872 33158 ft 520 kts 25°
2026-04-25 13:57 26.51066 119.75176 33172 ft 521 kts 25°
2026-04-25 13:57 26.57181 119.79461 33150 ft 522 kts 25°
2026-04-25 13:58 26.63339 119.83791 33136 ft 524 kts 25°
2026-04-25 13:58 26.69515 119.88134 33147 ft 524 kts 25°
2026-04-25 13:59 26.75703 119.92499 33168 ft 525 kts 25°
2026-04-25 13:59 26.81891 119.96865 33154 ft 526 kts 25°
2026-04-25 14:00 26.88081 120.01240 33149 ft 527 kts 25°
2026-04-25 14:00 26.94243 120.05613 33172 ft 527 kts 25°
2026-04-25 14:01 27.00449 120.10015 33163 ft 527 kts 25°
2026-04-25 14:01 27.06655 120.14421 33146 ft 528 kts 25°
2026-04-25 14:02 27.12852 120.18836 33148 ft 528 kts 25°
2026-04-25 14:02 27.19060 120.23244 33184 ft 528 kts 24°
2026-04-25 14:03 27.25299 120.27630 33170 ft 529 kts 24°
2026-04-25 14:03 27.31532 120.32017 33159 ft 529 kts 25°
2026-04-25 14:04 27.37767 120.36432 33199 ft 529 kts 25°
2026-04-25 14:04 27.43990 120.40858 33141 ft 530 kts 25°
2026-04-25 14:05 27.50225 120.45302 33145 ft 530 kts 25°
2026-04-25 14:05 27.56575 120.49415 33143 ft 515 kts 10°
2026-04-25 14:06 27.63342 120.51865 33155 ft 509 kts
2026-04-25 14:06 27.70076 120.54232 33149 ft 510 kts
2026-04-25 14:07 27.76795 120.56973 33148 ft 515 kts 11°
2026-04-25 14:07 27.83553 120.59415 33194 ft 509 kts
2026-04-25 14:08 27.90363 120.61563 33179 ft 509 kts
2026-04-25 14:08 27.97137 120.63840 33174 ft 511 kts
2026-04-25 14:09 28.03918 120.66281 33165 ft 512 kts
2026-04-25 14:09 28.10706 120.68743 33202 ft 511 kts
2026-04-25 14:10 28.17487 120.71162 33182 ft 511 kts
2026-04-25 14:10 28.24281 120.73566 33160 ft 511 kts
2026-04-25 14:11 28.31066 120.75972 33209 ft 511 kts
2026-04-25 14:11 28.37874 120.78405 33163 ft 513 kts
2026-04-25 14:12 28.44705 120.80850 33147 ft 514 kts
2026-04-25 14:12 28.51479 120.83268 33145 ft 515 kts
2026-04-25 14:13 28.58316 120.85718 33177 ft 516 kts
2026-04-25 14:13 28.65177 120.88186 33154 ft 517 kts
2026-04-25 14:14 28.72038 120.90656 33152 ft 517 kts
2026-04-25 14:14 28.78911 120.93128 33211 ft 518 kts
2026-04-25 14:15 28.84592 120.95181 33146 ft 514 kts
2026-04-25 14:15 28.92542 120.98059 33120 ft 513 kts
2026-04-25 14:16 28.99364 121.00512 33126 ft 515 kts
2026-04-25 14:16 29.06213 121.02981 33179 ft 515 kts
2026-04-25 14:17 29.12996 121.05437 33177 ft 515 kts
2026-04-25 14:17 29.19820 121.07909 33176 ft 515 kts
2026-04-25 14:18 29.26646 121.10397 33157 ft 509 kts
2026-04-25 14:18 29.33333 121.12842 33135 ft 504 kts
2026-04-25 14:19 29.40032 121.15272 33134 ft 507 kts
2026-04-25 14:19 29.46788 121.17729 33165 ft 508 kts
2026-04-25 14:19 29.50137 121.18956 32840 ft 504 kts
2026-04-25 14:20 29.53466 121.20178 32290 ft 501 kts 10°
2026-04-25 14:20 29.54589 121.20590 32080 ft 501 kts 10°
2026-04-25 14:20 29.60060 121.22594 31264 ft 495 kts 10°
2026-04-25 14:20 29.63321 121.23789 30772 ft 491 kts 10°
2026-04-25 14:21 29.66569 121.24978 30272 ft 488 kts 10°
2026-04-25 14:21 29.69795 121.26158 29787 ft 484 kts 10°
2026-04-25 14:21 29.72994 121.27331 29251 ft 480 kts 10°
2026-04-25 14:21 29.76163 121.28498 28777 ft 475 kts 11°
2026-04-25 14:22 29.79284 121.29648 28336 ft 469 kts 11°
2026-04-25 14:22 29.82392 121.30795 27857 ft 464 kts 11°
2026-04-25 14:22 29.85446 121.31923 27397 ft 458 kts 11°
2026-04-25 14:22 29.88450 121.33035 26942 ft 454 kts 13°
2026-04-25 14:23 29.91348 121.34516 26504 ft 456 kts 23°
2026-04-25 14:23 29.94139 121.36256 26069 ft 451 kts 24°
2026-04-25 14:23 29.96891 121.37977 25630 ft 446 kts 24°
2026-04-25 14:23 29.99582 121.39664 25216 ft 441 kts 24°
2026-04-25 14:24 30.02232 121.41329 24806 ft 437 kts 24°
2026-04-25 14:24 30.04900 121.43003 24402 ft 432 kts 25°
2026-04-25 14:24 30.07525 121.44649 24010 ft 427 kts 25°
2026-04-25 14:24 30.10118 121.46274 23608 ft 422 kts 25°
2026-04-25 14:25 30.12683 121.47881 23157 ft 417 kts 26°
2026-04-25 14:25 30.15205 121.49461 22730 ft 411 kts 26°
2026-04-25 14:25 30.17722 121.51039 22251 ft 407 kts 26°
2026-04-25 14:25 30.18562 121.51565 22089 ft 406 kts 26°
2026-04-25 14:26 30.22651 121.54136 21268 ft 401 kts 26°
2026-04-25 14:26 30.25105 121.55681 20786 ft 398 kts 26°
2026-04-25 14:26 30.27515 121.57207 20331 ft 395 kts 26°
2026-04-25 14:26 30.29905 121.58744 19902 ft 392 kts 27°
2026-04-25 14:27 30.32278 121.60289 19487 ft 389 kts 27°
2026-04-25 14:27 30.34628 121.61829 19071 ft 386 kts 27°
2026-04-25 14:27 30.36951 121.63351 18677 ft 383 kts 28°
2026-04-25 14:27 30.39261 121.64912 18254 ft 380 kts 29°
2026-04-25 14:28 30.41508 121.66482 17801 ft 378 kts 30°
2026-04-25 14:28 30.43735 121.68065 17343 ft 375 kts 30°
2026-04-25 14:28 30.45948 121.69646 16905 ft 372 kts 30°
2026-04-25 14:28 30.48154 121.71218 16473 ft 370 kts 30°
2026-04-25 14:29 30.50345 121.72772 16083 ft 364 kts 30°
2026-04-25 14:29 30.52443 121.74256 15922 ft 342 kts 29°
2026-04-25 14:29 30.54410 121.75643 15466 ft 329 kts 29°
2026-04-25 14:29 30.56356 121.76989 14835 ft 322 kts 25°
2026-04-25 14:30 30.58423 121.77884 14197 ft 314 kts 11°
2026-04-25 14:30 30.62639 121.79013 12775 ft 308 kts 11°
2026-04-25 14:30 30.64724 121.79580 12085 ft 304 kts 11°
2026-04-25 14:31 30.66769 121.80135 11421 ft 300 kts 11°
2026-04-25 14:31 30.68778 121.80681 10763 ft 296 kts 11°
2026-04-25 14:31 30.70775 121.81224 10128 ft 292 kts 11°
2026-04-25 14:31 30.72753 121.81764 9857 ft 292 kts 12°
2026-04-25 14:32 30.74721 121.82302 9765 ft 291 kts 12°
2026-04-25 14:32 30.76704 121.82843 9780 ft 292 kts 11°
2026-04-25 14:32 30.78685 121.83381 9782 ft 292 kts 12°
2026-04-25 14:32 30.80666 121.83919 9785 ft 292 kts 11°
2026-04-25 14:33 30.82644 121.84459 9752 ft 291 kts 12°
2026-04-25 14:33 30.84611 121.84997 9351 ft 289 kts 11°
2026-04-25 14:33 30.86542 121.85524 8944 ft 289 kts 11°
2026-04-25 14:33 30.88485 121.86054 8560 ft 287 kts 11°
2026-04-25 14:34 30.90427 121.86582 8190 ft 285 kts 11°
2026-04-25 14:34 30.92357 121.87115 7798 ft 284 kts 14°
2026-04-25 14:34 30.94178 121.88004 7430 ft 284 kts 29°
2026-04-25 14:34 30.95869 121.89173 7052 ft 283 kts 29°
2026-04-25 14:35 30.97567 121.90341 6758 ft 281 kts 30°
2026-04-25 14:35 30.98773 121.91169 6503 ft 280 kts 30°
2026-04-25 14:35 31.00468 121.92329 6108 ft 279 kts 30°
2026-04-25 14:35 31.02129 121.93463 5880 ft 276 kts 30°
2026-04-25 14:36 31.03770 121.94582 5883 ft 276 kts 30°
2026-04-25 14:36 31.05381 121.95683 5867 ft 261 kts 30°
2026-04-25 14:36 31.06982 121.96599 5625 ft 254 kts 17°
2026-04-25 14:36 31.08703 121.96931 5313 ft 251 kts 359°
2026-04-25 14:37 31.10423 121.96647 4957 ft 250 kts 341°
2026-04-25 14:37 31.12076 121.96012 4602 ft 250 kts 341°
2026-04-25 14:37 31.13723 121.95386 4264 ft 249 kts 342°
2026-04-25 14:37 31.15367 121.94768 3954 ft 247 kts 342°
2026-04-25 14:38 31.17012 121.94154 3635 ft 246 kts 343°
2026-04-25 14:38 31.18611 121.93557 3340 ft 245 kts 343°
2026-04-25 14:38 31.20229 121.92952 3065 ft 242 kts 343°
2026-04-25 14:38 31.21828 121.92354 2989 ft 240 kts 343°
2026-04-25 14:39 31.23428 121.91752 2994 ft 241 kts 343°
2026-04-25 14:39 31.25021 121.91152 2988 ft 241 kts 343°
2026-04-25 14:39 31.26614 121.90551 2990 ft 241 kts 343°
2026-04-25 14:39 31.28211 121.89950 2990 ft 241 kts 343°
2026-04-25 14:40 31.29817 121.89347 2991 ft 240 kts 343°